TimeEDT,TemperatureF,Dew PointF,Humidity,Sea Level PressureIn,VisibilityMPH,Wind Direction,Wind SpeedMPH,Gust SpeedMPH,PrecipitationIn,Events,Conditions,WindDirDegrees,DateUTC
12:52 AM,46.9,39.9,77,29.97,10.0,South,8.1,-,N/A,,Clear,190,2012-10-10 04:52:00
1:52 AM,46.0,39.9,79,29.96,10.0,South,9.2,-,N/A,,Partly Cloudy,190,2012-10-10 05:52:00
2:52 AM,46.0,41.0,83,29.96,10.0,South,5.8,-,N/A,,Mostly Cloudy,190,2012-10-10 06:52:00
3:52 AM,46.0,42.1,86,29.94,10.0,South,9.2,-,N/A,,Overcast,190,2012-10-10 07:52:00
4:52 AM,48.0,42.1,80,29.94,10.0,South,8.1,-,N/A,,Mostly Cloudy,190,2012-10-10 08:52:00
5:52 AM,48.0,41.0,77,29.93,10.0,SSW,6.9,-,N/A,,Scattered Clouds,210,2012-10-10 09:52:00
6:52 AM,48.9,42.1,77,29.96,10.0,SSW,6.9,-,N/A,,Overcast,210,2012-10-10 10:52:00
7:52 AM,50.0,42.1,74,29.99,10.0,WSW,5.8,-,N/A,,Overcast,250,2012-10-10 11:52:00
8:08 AM,50.0,42.8,76,30.00,10.0,West,8.1,-,N/A,,Overcast,260,2012-10-10 12:08:00
8:27 AM,50.0,42.8,76,30.01,10.0,NW,12.7,18.4,N/A,,Overcast,310,2012-10-10 12:27:00
8:52 AM,48.9,42.1,77,30.02,10.0,NW,10.4,-,0.00,,Overcast,310,2012-10-10 12:52:00
9:40 AM,50.0,42.8,76,30.04,10.0,WNW,11.5,-,N/A,,Mostly Cloudy,300,2012-10-10 13:40:00
9:52 AM,48.9,41.0,74,30.05,10.0,WNW,13.8,-,N/A,,Mostly Cloudy,290,2012-10-10 13:52:00
10:52 AM,48.9,37.9,66,30.08,10.0,NW,12.7,-,N/A,,Mostly Cloudy,310,2012-10-10 14:52:00
11:27 AM,51.8,37.4,58,30.09,10.0,WNW,16.1,24.2,N/A,,Scattered Clouds,290,2012-10-10 15:27:00
11:52 AM,51.8,35.6,54,30.10,10.0,WNW,15.0,24.2,N/A,,Scattered Clouds,300,2012-10-10 15:52:00
12:52 PM,54.0,36.0,51,30.10,10.0,NW,16.1,-,N/A,,Scattered Clouds,310,2012-10-10 16:52:00
1:52 PM,55.0,36.0,49,30.09,10.0,NW,16.1,27.6,N/A,,Scattered Clouds,310,2012-10-10 17:52:00
2:52 PM,57.0,34.0,42,30.09,10.0,West,15.0,31.1,N/A,,Partly Cloudy,280,2012-10-10 18:52:00
3:52 PM,57.0,33.1,40,30.10,10.0,WNW,24.2,28.8,N/A,,Partly Cloudy,300,2012-10-10 19:52:00
4:52 PM,55.0,33.1,43,30.12,10.0,NW,21.9,28.8,N/A,,Partly Cloudy,320,2012-10-10 20:52:00
5:52 PM,53.1,30.0,41,30.14,10.0,WNW,13.8,24.2,N/A,,Partly Cloudy,290,2012-10-10 21:52:00
6:52 PM,50.0,28.0,43,30.16,10.0,WNW,11.5,-,N/A,,Clear,300,2012-10-10 22:52:00
7:52 PM,46.9,28.0,48,30.19,10.0,WNW,9.2,-,N/A,,Clear,300,2012-10-10 23:52:00
8:52 PM,43.0,28.0,56,30.23,10.0,West,4.6,-,N/A,,Clear,270,2012-10-11 00:52:00
9:52 PM,41.0,28.9,62,30.24,10.0,WNW,6.9,-,N/A,,Clear,290,2012-10-11 01:52:00
10:52 PM,41.0,28.0,60,30.25,10.0,West,5.8,-,N/A,,Clear,270,2012-10-11 02:52:00
11:52 PM,36.0,30.0,79,30.25,9.0,SSE,3.5,-,N/A,,Clear,160,2012-10-11 03:52:00